CFG2WR EDDB-EDDM

Flight info

Callsign CFG2WR
Flight time N/A
Altitude 28000
Route LUROS4N/24L LUROS Y211 BEBKU Z36 MAREM DCT VESUB T106 TUSTO T108 LANDU LANDU2B
Aircraft A339/H-SADE1E2E3GHIJ3J5M1P2RWXY/LB2D1

Departure

Time 2026-05-04 19:29
Airport Berlin Brandenburg Airport (EDDB)

Arrival

Time N/A
Airport Munich Airport (EDDM)
Time Latitude Longitude Altitude Speed Heading
2026-05-04 19:05 52.36087 13.50782 173 ft 0 kts 69°
2026-05-04 19:07 52.36307 13.50642 174 ft 0 kts 69°
2026-05-04 19:20 52.36304 13.50630 174 ft 2 kts 69°
2026-05-04 19:20 52.36301 13.50614 174 ft 2 kts 69°
2026-05-04 19:20 52.36296 13.50592 173 ft 2 kts 69°
2026-05-04 19:21 52.36291 13.50571 173 ft 2 kts 69°
2026-05-04 19:21 52.36286 13.50550 173 ft 2 kts 69°
2026-05-04 19:21 52.36281 13.50530 173 ft 2 kts 69°
2026-05-04 19:21 52.36276 13.50507 174 ft 2 kts 69°
2026-05-04 19:22 52.36270 13.50485 174 ft 2 kts 69°
2026-05-04 19:22 52.36267 13.50467 174 ft 2 kts 69°
2026-05-04 19:22 52.36262 13.50448 174 ft 2 kts 69°
2026-05-04 19:22 52.36256 13.50423 174 ft 2 kts 69°
2026-05-04 19:23 52.36250 13.50394 174 ft 2 kts 69°
2026-05-04 19:23 52.36248 13.50366 174 ft 2 kts 118°
2026-05-04 19:23 52.36262 13.50348 174 ft 2 kts 177°
2026-05-04 19:23 52.36276 13.50350 174 ft 1 kts 168°
2026-05-04 19:24 52.36281 13.50347 174 ft 0 kts 159°
2026-05-04 19:26 52.36280 13.50348 174 ft 1 kts 159°
2026-05-04 19:26 52.36241 13.50372 174 ft 11 kts 159°
2026-05-04 19:26 52.36158 13.50424 174 ft 12 kts 158°
2026-05-04 19:27 52.36075 13.50476 174 ft 13 kts 159°
2026-05-04 19:27 52.35986 13.50533 174 ft 14 kts 158°
2026-05-04 19:27 52.35893 13.50592 173 ft 14 kts 159°
2026-05-04 19:27 52.35795 13.50653 174 ft 15 kts 159°
2026-05-04 19:28 52.35695 13.50717 174 ft 15 kts 158°
2026-05-04 19:28 52.35613 13.50725 174 ft 10 kts 211°
2026-05-04 19:28 52.35550 13.50647 174 ft 12 kts 218°
2026-05-04 19:28 52.35456 13.50513 174 ft 24 kts 225°
2026-05-04 19:29 52.35331 13.50158 174 ft 61 kts 248°
2026-05-04 19:29 52.35096 13.49172 174 ft 124 kts 249°
2026-05-04 19:29 52.34718 13.47592 270 ft 165 kts 250°
2026-05-04 19:29 52.34305 13.45886 901 ft 161 kts 244°
2026-05-04 19:30 52.33643 13.44424 1510 ft 163 kts 221°
2026-05-04 19:30 52.32613 13.43803 2022 ft 166 kts 170°
2026-05-04 19:30 52.31456 13.44289 2354 ft 179 kts 159°
2026-05-04 19:30 52.30246 13.45017 2670 ft 195 kts 158°
2026-05-04 19:31 52.28912 13.45805 3002 ft 213 kts 160°
2026-05-04 19:31 52.27448 13.46619 3366 ft 231 kts 161°
2026-05-04 19:31 52.25879 13.47451 3744 ft 249 kts 162°
2026-05-04 19:31 52.24172 13.48332 4184 ft 266 kts 162°
2026-05-04 19:32 52.22389 13.49240 4862 ft 273 kts 163°
2026-05-04 19:32 52.20565 13.50163 5681 ft 275 kts 164°
2026-05-04 19:32 52.18753 13.51076 6475 ft 277 kts 164°
2026-05-04 19:32 52.16926 13.51993 7260 ft 280 kts 165°
2026-05-04 19:33 52.15054 13.52931 8052 ft 282 kts 165°
2026-05-04 19:33 52.13196 13.53858 8836 ft 284 kts 165°
2026-05-04 19:33 52.11303 13.54802 9623 ft 286 kts 165°
2026-05-04 19:33 52.09391 13.55754 10369 ft 290 kts 165°
2026-05-04 19:34 52.07421 13.56730 10800 ft 305 kts 165°
2026-05-04 19:34 52.05348 13.57754 11138 ft 323 kts 165°
2026-05-04 19:34 52.03120 13.58857 11452 ft 342 kts 165°
2026-05-04 19:34 52.00811 13.60000 11755 ft 359 kts 165°
2026-05-04 19:35 51.98354 13.61220 12147 ft 374 kts 165°
2026-05-04 19:35 51.95868 13.62454 12821 ft 379 kts 165°
2026-05-04 19:35 51.93369 13.63694 13564 ft 382 kts 165°
2026-05-04 19:35 51.90826 13.64956 14275 ft 385 kts 165°
2026-05-04 19:36 51.88271 13.66221 14973 ft 389 kts 165°
2026-05-04 19:36 51.85659 13.67511 15693 ft 392 kts 166°
2026-05-04 19:36 51.83074 13.68785 16368 ft 396 kts 166°
2026-05-04 19:36 51.80416 13.70094 17036 ft 400 kts 166°
2026-05-04 19:37 51.77771 13.71394 17697 ft 404 kts 166°
2026-05-04 19:37 51.75050 13.72731 18361 ft 407 kts 165°
2026-05-04 19:37 51.72359 13.74051 18995 ft 412 kts 166°
2026-05-04 19:37 51.69603 13.75403 19630 ft 415 kts 166°
2026-05-04 19:38 51.66829 13.76761 20237 ft 419 kts 166°
2026-05-04 19:38 51.64054 13.78118 20823 ft 423 kts 166°
2026-05-04 19:38 51.61241 13.79491 21399 ft 427 kts 166°
2026-05-04 19:38 51.58399 13.80877 21952 ft 430 kts 166°
2026-05-04 19:39 51.55501 13.82039 22456 ft 430 kts 176°
2026-05-04 19:39 51.52518 13.81818 22967 ft 428 kts 191°
2026-05-04 19:39 51.49572 13.81021 23521 ft 430 kts 193°
2026-05-04 19:39 51.46635 13.80167 24017 ft 433 kts 192°
2026-05-04 19:40 51.43666 13.79349 24512 ft 437 kts 192°
2026-05-04 19:40 51.40671 13.78576 24965 ft 441 kts 192°
2026-05-04 19:40 51.37619 13.77825 25337 ft 446 kts 191°
2026-05-04 19:40 51.34551 13.77098 25769 ft 449 kts 191°
2026-05-04 19:41 51.31448 13.76380 26229 ft 452 kts 191°
2026-05-04 19:41 51.28312 13.75662 26665 ft 454 kts 191°
2026-05-04 19:41 51.25207 13.74954 27060 ft 458 kts 191°
2026-05-04 19:41 51.22062 13.74243 27555 ft 458 kts 191°
2026-05-04 19:42 51.18897 13.73529 27907 ft 460 kts 191°
2026-05-04 19:42 51.15730 13.72817 27937 ft 460 kts 191°
2026-05-04 19:42 51.12529 13.72097 27937 ft 460 kts 191°
2026-05-04 19:42 51.09372 13.71389 27941 ft 460 kts 191°
2026-05-04 19:43 51.06228 13.70685 27940 ft 460 kts 191°
2026-05-04 19:43 51.03071 13.69978 27937 ft 460 kts 191°
2026-05-04 19:43 50.99907 13.69271 27940 ft 461 kts 191°
2026-05-04 19:43 50.96725 13.68563 27939 ft 460 kts 190°
2026-05-04 19:44 50.93550 13.67857 27935 ft 460 kts 191°
2026-05-04 19:44 50.90409 13.67159 27939 ft 460 kts 191°
2026-05-04 19:44 50.87225 13.66452 27941 ft 460 kts 190°
2026-05-04 19:44 50.84047 13.65748 27941 ft 460 kts 190°
2026-05-04 19:45 50.80864 13.65045 27947 ft 460 kts 191°
2026-05-04 19:45 50.77718 13.64348 27949 ft 460 kts 191°
2026-05-04 19:45 50.74571 13.63602 27952 ft 459 kts 193°
2026-05-04 19:45 50.71424 13.62567 27953 ft 459 kts 196°
2026-05-04 19:46 50.68378 13.61297 27953 ft 458 kts 199°
2026-05-04 19:46 50.65351 13.59788 27947 ft 459 kts 200°
2026-05-04 19:46 50.62315 13.58258 27945 ft 459 kts 200°
2026-05-04 19:46 50.59271 13.56738 27941 ft 459 kts 200°
2026-05-04 19:47 50.56238 13.55229 27937 ft 459 kts 200°
2026-05-04 19:47 50.53187 13.53714 27937 ft 459 kts 200°
2026-05-04 19:47 50.50145 13.52203 27934 ft 459 kts 200°
2026-05-04 19:47 50.47098 13.50693 27932 ft 459 kts 200°
2026-05-04 19:48 50.44041 13.49181 27930 ft 459 kts 201°
2026-05-04 19:48 50.41052 13.47449 27931 ft 458 kts 203°
2026-05-04 19:48 50.38113 13.45608 27932 ft 458 kts 204°
2026-05-04 19:48 50.35154 13.43727 27934 ft 459 kts 204°
2026-05-04 19:49 50.32198 13.41839 27937 ft 459 kts 204°
2026-05-04 19:49 50.29285 13.39979 27935 ft 458 kts 204°
2026-05-04 19:49 50.26340 13.38103 27934 ft 458 kts 204°
2026-05-04 19:49 50.23399 13.36228 27938 ft 458 kts 204°
2026-05-04 19:50 50.20573 13.34425 27941 ft 458 kts 203°
2026-05-04 19:50 50.17603 13.32532 27940 ft 459 kts 204°
2026-05-04 19:50 50.14667 13.30663 27941 ft 459 kts 204°
2026-05-04 19:50 50.11709 13.28779 27948 ft 459 kts 204°
2026-05-04 19:51 50.08760 13.26906 27943 ft 459 kts 204°
2026-05-04 19:51 50.05831 13.25048 27942 ft 459 kts 204°
2026-05-04 19:51 50.02867 13.23170 27941 ft 459 kts 204°
2026-05-04 19:51 49.99905 13.21295 27942 ft 459 kts 204°
2026-05-04 19:52 49.96956 13.19429 27942 ft 459 kts 204°
2026-05-04 19:52 49.93986 13.17550 27939 ft 459 kts 204°
2026-05-04 19:52 49.91062 13.15745 27933 ft 460 kts 200°
2026-05-04 19:52 49.87928 13.14472 27932 ft 461 kts 194°
2026-05-04 19:53 49.84790 13.13503 27928 ft 462 kts 192°